Helicity
10 5 -7 -9 -13 -13 -5 33 57 64 23 80 27 12 -9 14 14 2 -16 -31 -38 -22 -22 -10 -16 -15 -23 -25 -20 -11 -6 -2 2 8 19 19 13 18 12 14 11 16 23 29 29 17 4 15 7
3 -2 11 -6 1 20 38 75 136 111 52 26 21 0 -4 -22 27 -17 -6 -34 -27 -27 -24 -18 -11 -13 -15 -20 -15 -5 -9 -14 -1 9 24 24 13 30 27 27 30 16 11 23 27 8 4 3 -1
15 18 9 -3 5 39 89 83 121 72 62 128 42 47 27 13 21 13 -50 -25 -29 -24 -15 -18 -10 -5 -12 -12 -7 -3 -3 -4 10 -5 4 20 20 21 32 22 18 18 4 19 20 -3 -13 -21 -1
7 -26 2 2 13 24 96 87 88 45 95 96 41 8 5 30 21 -25 -26 -16 -28 -24 -7 -12 2 6 -7 -6 -3 0 -2 -2 0 -9 -14 -14 -9 -6 -17 -10 1 13 7 2 10 -8 -33 23 11
-14 -37 -35 -29 -19 21 43 111 -5 -7 43 47 36 -45 41 6 -5 -25 -27 -25 -12 -13 -5 -8 -1 6 4 0 0 1 -2 -3 -6 -9 -9 -17 -17 -16 -13 -13 -14 -5 19 21 28 25 7 9 -11
-30 -42 -18 -12 12 10 25 51 54 3 13 -14 -10 12 3 -30 -41 -30 -37 -32 -20 -6 -5 -6 -2 3 1 3 -1 4 5 5 -2 -5 -13 -20 -16 -13 -12 -10 -20 -10 3 17 36 41 16 -2 -1
-14 -8 -4 -21 23 8 2 30 -39 -2 12 -25 7 -4 -24 -38 -49 -46 -39 -40 -18 -15 -8 -7 -6 3 6 1 5 7 12 14 7 -2 -9 -14 -15 -5 -1 -4 0 10 12 25 35 36 20 17 17
10 12 8 0 9 -14 -32 -10 48 -28 -5 37 8 -45 5 -44 -50 -46 -35 -37 -15 -10 -11 -8 0 2 12 5 9 17 14 20 10 0 -3 -12 -9 -4 5 19 22 17 19 27 35 31 28 9 11
15 29 13 22 34 29 1 -64 -30 4 -11 7 29 -20 40 -8 -36 -19 -22 -23 -15 -9 -7 -6 -7 -2 -1 7 11 17 13 6 15 2 -12 4 5 3 10 18 14 28 35 33 34 26 32 16 11
46 36 37 22 28 36 8 -18 -39 -30 12 21 18 24 76 27 2 22 19 11 -2 -6 -3 -5 -14 -2 4 6 7 17 7 9 12 4 -3 13 10 10 29 -1 8 23 37 41 37 32 39 43 27
24 50 39 39 28 16 13 41 17 -3 -18 -3 103 98 85 52 11 19 6 2 0 -9 -8 -5 -7 3 9 3 7 14 12 13 14 3 11 15 12 24 27 34 31 32 43 53 52 37 26 25 29
72 35 46 27 27 12 12 55 47 0 9 5 69 118 140 58 22 7 11 -6 -12 -8 -8 -9 -8 -1 3 9 12 11 0 6 10 15 25 29 24 24 25 25 22 24 40 46 40 36 32 33 39
49 99 75 50 39 49 10 -6 5 -7 14 44 69 87 100 56 0 -31 -21 -19 -16 -11 -9 -7 -10 -8 -4 4 7 8 1 3 8 24 30 35 24 20 17 24 32 32 33 38 26 37 35 27 24
57 75 98 74 46 22 -2 9 -23 4 17 44 90 99 80 46 8 -29 -21 -23 -10 -6 -7 -7 -5 -5 -6 2 2 13 8 5 11 24 33 34 21 14 19 18 26 27 25 25 26 39 40 29 14
117 135 75 69 34 26 17 59 20 65 65 51 54 64 64 11 0 -17 -17 -14 -8 -15 -14 -6 -9 -5 0 1 -8 4 8 8 22 13 30 19 13 11 8 15 19 11 24 18 24 26 23 15 15
121 122 79 77 23 32 1 60 43 89 126 46 55 34 36 15 3 -26 -30 -23 -18 -15 -16 -11 -8 -6 4 -2 -10 -2 1 11 20 14 15 11 11 27 15 12 6 5 19 22 20 16 11 10 21
152 92 78 82 67 45 25 72 19 24 85 98 63 48 33 8 -23 -38 -38 -10 -3 -7 -14 -12 -3 -5 6 -3 -3 1 11 17 10 15 11 7 7 5 12 17 0 1 2 11 14 14 22 16 20
137 145 131 102 64 61 66 67 6 1 9 33 36 18 27 17 3 -30 -37 -27 -21 -4 -9 -5 2 -2 3 6 -1 10 10 11 8 4 8 8 5 6 12 19 6 8 0 14 22 18 22 21 25
169 161 154 139 114 81 79 105 58 8 8 25 13 4 9 14 3 -25 -45 -22 -27 -44 -11 -7 -6 -7 13 7 -5 0 6 5 4 8 5 7 11 9 8 18 5 8 -1 17 20 17 14 10 19
120 141 152 155 113 80 87 112 60 3 61 23 59 36 20 -15 -3 -21 -40 -30 -22 -25 3 9 -8 2 14 26 15 12 18 10 10 5 4 1 -1 3 2 2 1 14 3 3 9 34 20 9 18
66 70 105 142 124 78 53 62 67 21 24 8 14 42 39 33 38 1 -33 -29 -36 -39 -18 29 32 34 25 10 6 11 15 14 9 3 6 -4 -8 -1 4 2 1 4 12 3 8 13 29 15 9
70 44 70 102 108 85 98 64 60 16 17 6 3 47 66 64 20 31 1 -31 -39 -35 27 61 55 51 38 18 15 8 12 20 12 0 -2 -8 -10 -8 -12 3 2 -1 9 7 7 20 23 27 19
80 61 92 123 135 118 62 60 64 52 22 6 -8 -9 119 102 70 52 45 5 -22 -52 -22 55 69 64 54 48 30 13 17 22 28 8 -18 -11 -10 -15 -15 -4 9 6 9 1 2 15 12 17 15
58 103 136 149 170 102 71 80 59 87 144 106 43 6 27 91 128 79 36 7 -10 -32 -33 34 55 93 65 52 66 33 16 15 28 5 -9 -12 -8 -15 -14 -13 -4 -1 -3 7 -4 -2 5 14 14
85 110 181 167 153 102 124 63 95 122 113 138 143 41 64 86 98 118 90 17 -38 -30 -44 17 32 60 70 60 71 70 31 17 27 15 0 -3 -2 -12 -15 -5 3 0 4 9 13 9 6 9 27
73 97 182 198 166 102 127 56 73 126 85 91 103 65 8 21 81 102 97 97 22 -21 -8 16 35 57 56 38 87 70 43 23 17 21 18 8 -5 -16 -16 -11 1 -1 4 9 9 8 9 16 22
114 136 149 175 198 114 131 139 112 248 229 207 186 134 50 1 11 43 109 96 76 29 10 29 38 40 59 66 56 52 34 40 19 16 14 3 3 -2 -8 -20 -10 -12 0 4 6 7 4 10 11
150 153 149 201 197 151 191 219 203 284 294 278 241 225 115 33 18 14 53 47 80 49 50 36 37 59 73 86 72 50 30 23 34 14 18 12 6 5 0 -21 -24 -14 -6 1 13 8 7 5 5
180 180 190 202 242 177 210 235 270 271 231 197 235 244 201 165 75 52 45 40 50 51 27 53 56 47 48 75 92 76 50 16 30 24 17 10 5 12 -2 -8 -21 -23 -9 -1 5 7 14 15 4
215 189 201 163 178 234 233 221 217 202 159 162 196 239 250 236 234 241 152 50 26 32 42 30 41 58 66 81 122 95 104 49 22 38 15 4 8 16 10 -7 0 -12 -22 -15 3 1 6 10 6
Wind_Speed
35 32 31 33 30 29 26 30 26 20 18 29 53 51 53 40 41 43 61 67 70 70 66 63 61 60 59 57 54 51 50 49 47 46 45 43 41 38 34 29 26 24 20 21 27 33 33 31 27
40 39 36 32 29 27 31 28 28 23 20 36 5 17 47 46 33 56 70 72 70 69 65 62 60 59 58 55 52 50 50 49 48 47 45 43 44 39 34 27 23 19 17 19 26 34 35 35 29
45 32 32 30 28 28 26 24 23 17 3 19 33 27 35 39 40 67 64 76 70 67 64 61 59 57 56 53 49 50 50 48 48 45 46 48 48 47 40 21 14 12 11 11 21 39 39 34 11
34 30 34 36 31 26 29 22 21 8 34 29 32 21 34 36 63 63 70 75 70 67 64 60 57 56 55 51 49 49 46 46 45 41 40 43 46 50 40 25 17 11 11 10 19 34 50 43 42
22 29 34 38 41 38 41 32 18 1 32 40 37 38 17 51 56 66 69 71 70 68 63 60 55 56 54 50 48 48 45 43 42 43 43 44 45 45 40 30 24 15 16 10 15 36 46 43 43
24 30 31 36 41 43 46 41 55 60 53 49 9 30 45 59 62 68 68 69 67 64 63 58 56 54 50 48 47 46 47 45 43 44 45 48 45 43 39 34 29 33 30 32 29 32 42 45 18
24 28 31 37 41 39 45 49 70 57 53 35 34 25 48 56 67 66 68 67 66 61 59 56 54 52 50 49 49 47 48 47 45 47 46 48 44 39 38 39 40 43 41 42 34 28 30 7 25
25 26 29 35 39 39 47 51 44 44 22 25 45 44 55 61 70 65 67 66 65 61 55 53 53 52 51 51 50 49 48 46 48 48 47 50 50 44 29 41 37 42 49 45 39 20 12 8 35
26 24 26 32 36 39 42 43 47 44 45 42 49 31 53 63 67 63 66 67 64 61 57 53 49 52 51 50 51 51 47 46 50 48 42 38 40 44 41 27 23 32 41 45 39 40 21 26 50
26 23 23 29 32 36 40 40 43 44 42 11 19 34 57 62 66 64 66 64 64 60 58 55 47 52 51 50 51 50 49 44 46 47 48 38 38 36 29 25 47 24 31 31 35 30 25 31 37
25 24 23 27 27 30 35 36 30 30 38 37 40 50 62 63 63 62 66 64 63 60 58 56 52 54 52 51 50 47 49 46 47 48 43 40 42 32 38 35 37 39 31 33 32 32 30 28 32
29 31 31 27 28 26 27 28 39 23 19 26 37 52 60 59 60 59 57 63 63 61 59 56 53 54 54 52 51 50 51 47 45 44 37 38 39 39 38 38 35 37 34 32 30 28 29 29 30
34 34 35 35 36 33 25 21 25 13 14 28 37 45 50 53 58 55 59 57 60 60 57 59 55 53 55 54 48 49 49 46 42 40 35 32 34 34 35 36 34 35 32 33 29 30 25 27 27
30 37 45 37 33 25 18 23 21 18 14 26 35 43 49 52 57 54 56 59 58 58 56 59 58 57 57 56 55 52 48 46 41 36 33 30 31 32 33 33 33 33 35 33 32 31 26 26 30
37 40 36 30 24 22 16 23 24 22 28 26 28 40 46 50 54 59 54 53 54 56 57 57 60 60 58 57 50 53 48 45 40 37 37 33 31 31 34 33 36 33 33 38 35 32 27 28 34
36 33 33 30 23 23 26 27 23 10 26 28 24 41 43 51 56 59 58 52 55 50 61 61 62 62 60 58 54 53 50 45 40 38 37 37 32 32 35 36 38 35 34 36 36 35 31 29 31
38 32 32 29 25 24 31 26 20 6 14 25 39 31 41 46 52 63 61 37 49 57 64 65 64 64 63 57 55 52 45 44 38 36 36 37 34 35 36 38 36 35 35 33 33 34 33 32 32
38 34 32 31 31 29 31 33 26 18 9 9 17 32 33 41 52 53 69 51 56 57 65 65 67 65 63 50 52 40 45 43 41 38 36 37 37 36 35 38 38 39 36 32 29 32 30 30 31
35 37 35 35 33 37 40 41 42 22 5 5 14 21 27 32 45 48 63 40 28 41 66 64 63 65 58 56 56 54 52 46 43 41 39 37 40 39 39 38 36 38 37 33 30 33 35 32 31
40 39 41 40 32 38 42 44 39 34 54 6 23 20 31 30 42 52 61 50 37 44 67 70 49 60 68 63 59 47 49 45 40 40 42 38 36 38 41 37 38 37 35 38 36 31 34 35 33
41 43 41 42 43 37 39 43 37 37 36 3 25 33 36 38 39 49 54 61 55 54 55 73 71 52 54 61 55 39 40 38 40 41 44 40 34 26 43 41 40 40 41 40 38 35 34 37 36
45 40 40 44 44 46 39 41 39 38 41 32 10 13 25 27 35 42 51 63 61 54 73 76 73 71 58 63 56 59 57 52 46 41 44 41 34 26 37 44 43 40 43 42 41 37 33 33 35
42 30 40 43 44 45 43 43 36 37 41 49 49 41 35 21 29 43 52 59 57 62 57 77 75 73 70 54 62 61 61 54 44 41 43 43 36 38 39 43 46 44 43 45 43 39 32 35 36
29 33 34 37 44 52 43 44 35 34 42 46 57 56 13 24 29 39 47 51 54 51 27 67 71 80 75 59 50 64 63 56 47 49 47 46 40 39 42 43 43 41 41 45 45 43 40 37 36
37 38 46 53 56 53 42 43 33 35 35 42 51 64 20 27 26 26 37 60 52 50 31 48 60 77 75 37 59 63 66 64 59 54 53 49 42 40 46 46 44 43 43 44 40 46 45 41 39
43 47 50 59 61 54 40 44 33 30 33 37 39 44 37 29 28 27 25 49 56 45 33 33 56 66 65 20 58 66 68 67 65 61 57 55 50 47 44 48 46 41 42 43 42 44 46 44 43
43 53 44 41 44 54 48 41 37 37 36 35 34 32 41 28 18 23 19 32 43 41 29 39 66 63 53 83 48 75 72 71 67 62 61 59 55 49 47 49 47 47 46 44 44 44 46 44 46
42 36 52 49 55 56 51 48 47 44 43 39 36 35 36 37 24 26 21 38 23 31 47 52 64 74 60 50 74 69 73 73 71 67 65 63 58 54 50 54 53 51 50 48 47 46 46 47 47
43 45 44 47 47 56 55 50 42 40 38 36 35 33 29 25 34 36 43 47 41 40 44 53 62 70 69 63 71 66 63 77 73 72 71 68 63 53 56 55 57 54 48 45 47 48 48 48 48
33 43 46 60 60 51 48 48 34 31 29 30 30 30 28 25 23 24 34 41 40 40 51 52 58 65 69 70 65 73 60 67 77 74 75 74 71 61 54 55 57 60 58 50 45 43 46 49 51
Wind_Direction
89 82 81 117 95 86 87 277 318 312 20 213 111 130 122 133 125 131 140 139 126 132 133 133 128 131 125 119 117 100 100 91 82 77 67 60 54 42 31 20 10 8 351 358 25 40 42 37 31
99 107 159 116 86 65 27 33 337 275 242 87 5 118 133 127 158 130 132 131 126 129 133 132 134 132 135 126 118 106 109 106 84 77 61 55 65 43 34 12 1 351 343 2 24 44 47 48 37
118 187 123 60 61 50 45 50 360 254 151 230 204 210 185 141 155 120 138 132 127 130 137 131 130 132 136 132 132 116 112 108 86 110 93 80 82 72 45 356 324 314 301 323 18 58 58 51 62
119 40 72 24 61 64 32 66 35 293 217 216 206 36 186 178 123 145 125 132 130 130 141 126 125 134 137 143 137 127 134 126 121 132 132 124 116 103 136 174 201 244 241 240 19 46 90 143 159
312 2 4 0 1 62 59 75 66 293 222 205 202 111 229 133 155 120 125 131 131 138 145 139 123 134 143 148 142 130 138 139 131 125 129 127 125 124 131 157 180 209 206 223 205 161 141 153 152
349 2 342 339 352 53 56 99 153 150 183 154 57 69 149 140 122 126 129 132 132 131 143 142 141 149 153 153 149 143 127 130 131 127 129 124 127 130 135 145 162 164 170 168 170 166 153 147 162
326 342 331 344 349 42 76 134 125 130 158 116 92 72 123 125 130 128 131 132 136 131 135 134 133 149 150 146 140 139 128 123 124 126 133 126 133 140 138 138 142 146 153 152 158 167 166 10 28
293 326 331 345 349 38 92 138 166 112 159 67 126 138 132 132 133 127 132 137 144 143 131 128 138 148 150 140 133 133 135 129 126 133 136 125 122 133 153 137 147 147 140 147 153 174 185 199 38
289 321 344 346 349 51 97 109 143 160 104 153 173 94 126 128 130 128 133 146 151 153 142 135 123 143 147 145 128 128 138 141 124 134 146 155 147 138 137 160 170 163 152 145 153 149 177 158 70
286 305 326 337 341 38 76 93 116 120 104 295 32 83 121 128 133 132 138 140 151 146 152 141 120 136 134 153 135 138 135 150 140 136 132 156 155 155 166 79 132 181 170 168 159 163 165 157 145
290 292 310 333 338 29 67 83 85 92 116 112 103 116 128 132 135 136 145 148 153 149 155 150 135 148 137 158 153 155 144 149 142 135 146 153 146 167 152 160 156 156 176 173 170 163 165 165 158
278 279 285 307 317 337 359 64 207 88 357 77 108 123 129 134 138 138 138 151 158 157 159 149 141 145 159 166 159 157 138 153 152 152 164 159 154 155 153 153 161 162 173 177 179 177 172 169 166
271 276 287 290 286 292 335 2 286 39 356 89 109 123 131 134 141 140 146 144 155 160 152 159 148 141 160 156 181 168 158 157 167 169 174 180 168 170 162 161 167 166 175 179 182 173 183 182 176
284 280 275 288 295 312 349 352 333 20 71 101 119 130 136 140 143 142 147 151 153 157 151 156 160 158 163 161 154 171 170 166 172 185 189 193 187 181 179 175 175 179 181 183 181 178 182 181 171
274 274 280 296 307 308 332 325 298 68 94 107 122 132 139 143 146 153 148 148 150 154 156 155 164 170 173 177 138 167 177 173 186 186 187 194 201 198 190 192 180 181 188 184 187 187 189 184 164
262 273 268 288 292 290 287 296 293 48 108 105 127 139 142 149 154 156 157 151 157 149 167 164 169 175 183 178 151 160 157 182 197 194 193 185 196 207 197 193 181 187 188 183 185 189 191 186 177
256 262 263 275 287 285 274 290 305 7 90 115 135 140 146 149 155 165 165 140 152 164 172 172 172 173 184 192 187 187 201 197 211 207 200 190 197 194 194 192 199 201 190 193 190 194 196 191 180
250 256 262 266 268 278 275 273 290 294 304 91 134 143 147 151 158 159 179 157 165 165 173 172 179 193 192 213 203 225 210 208 212 210 206 193 193 189 202 196 197 194 196 205 210 201 210 207 195
258 254 258 262 268 270 265 265 259 286 322 276 132 148 152 154 154 156 167 148 136 147 169 165 164 200 210 209 163 184 200 208 213 218 208 200 183 187 184 196 214 204 199 210 216 203 199 207 208
258 255 256 263 268 267 265 263 268 264 199 250 137 141 151 155 157 162 167 158 149 150 172 185 149 211 192 198 186 221 211 217 225 218 200 214 211 195 181 211 209 215 216 205 207 213 204 196 201
255 254 255 259 262 273 270 261 269 262 261 252 146 150 151 158 163 165 166 168 163 161 161 185 189 168 157 205 212 238 238 239 232 224 200 208 228 269 182 200 201 199 203 210 217 220 215 201 203
252 258 259 258 259 253 268 259 263 265 257 261 250 165 157 159 164 167 167 171 171 166 182 200 206 199 168 179 222 214 209 214 222 228 208 212 240 265 219 189 183 188 192 199 211 222 231 223 210
256 266 259 257 257 259 257 258 268 271 261 256 253 259 167 168 168 168 170 172 171 174 176 213 214 208 197 166 192 208 210 220 236 234 223 214 238 226 210 191 179 183 189 186 206 219 242 232 223
253 259 264 261 255 252 253 254 266 274 268 266 250 253 240 171 167 170 172 172 172 171 183 228 225 206 208 177 168 198 207 223 236 229 223 221 230 233 216 202 197 212 217 191 195 220 231 234 237
246 244 249 248 246 248 253 253 264 276 282 277 266 246 195 173 172 173 173 176 175 174 179 242 236 219 222 169 181 190 206 214 224 228 223 223 239 237 214 205 204 208 203 195 216 213 218 226 229
242 241 249 246 244 244 252 251 255 283 290 292 293 264 265 174 180 178 183 173 177 177 184 238 241 236 237 215 182 194 203 217 218 224 227 223 229 231 228 201 197 223 214 211 220 211 217 225 225
247 243 254 259 257 245 248 254 259 283 292 300 302 292 264 270 202 192 191 176 174 179 211 238 238 242 247 217 250 220 220 215 225 233 231 227 232 238 237 220 212 205 202 212 216 215 215 230 226
253 250 243 252 245 243 248 249 257 274 281 291 299 301 290 267 261 251 234 249 226 238 243 244 243 236 246 248 236 241 234 226 226 233 231 230 233 236 243 222 214 208 197 195 199 211 222 228 230
249 248 252 251 256 248 245 250 268 275 284 287 297 306 315 295 266 260 254 252 251 250 247 246 245 243 243 247 243 247 249 230 231 230 228 229 233 246 239 239 223 200 180 172 180 195 215 224 233
264 254 253 247 247 255 256 254 282 281 290 296 300 308 315 319 304 291 269 261 259 259 253 252 250 247 247 247 250 246 252 249 234 234 228 227 229 244 252 244 239 224 206 184 176 174 181 198 220